User: anonymous   Login
Location: Unspecified
(0.0000°N, 0.0000°E)
Time: 16:17:42
(UTC+00:00)
Language:

PLEIADES 1B - Orbit

View from above orbital plane
View from above orbital plane
View from above satellite
View from above satellite

Ground track
Ground track

The orbit data is extracted from the following two-line orbital elements,

1 39019U 12068A   16339.00033824  .00000039  00000-0  18287-4 0  9993
2 39019  98.1878  51.0279 0001256  81.8284 278.3056 14.58564482213266
Epoch (UTC): 04 December 2016 00:00:29
Eccentricity: 0.0001256
inclination: 98.1878°
perigee height: 697 km
apogee height: 699 km
right ascension of ascending node: 51.0279°
argument of perigee: 81.8284°
revolutions per day: 14.58564482
mean anomaly at epoch: 278.3056°
orbit number at epoch: 21326

The dashed part of the orbit path shows where the satellite is in the earth's shadow,  

DLR